Youngstown, OH

2:50 AM EDT on August 20, 2017 (GMT -0400)
Youngstown-Warren Regional

Weather History for KYNG - December, 2012

Change the Weather History Date:

Monday, December 31, 2012

  Actual Average Record
Temperature  
Mean Temperature 26 °F 26 °F  
Max Temperature 32 °F 33 °F 60 °F (1972)
Min Temperature 19 °F 20 °F -6 °F (1976)
Degree Days  
Heating Degree Days 39 38  
Month to date heating degree days 882 1076  
Since 1 July heating degree days 2263 2406  
Cooling Degree Days 0 0  
Month to date cooling degree days 0 0  
Year to date cooling degree days 761 544  
Moisture  
Dew Point 22 °F    
Average Humidity 76    
Maximum Humidity 92    
Minimum Humidity 59    
Precipitation  
Precipitation 0.18 in 0.09 in 0.84 in (1965)
Month to date precipitation 5.19 2.99  
Year to date precipitation 45.09 38.91  
Snow  
Snow 1.80 in 0.50 in - ()
Month to date snowfall 24.3 15.0  
Since 1 July snowfall 27.2 19.4  
Snow Depth 9.00 in    
Sea Level Pressure  
Sea Level Pressure 30.07 in    
Wind  
Wind Speed 12 mph (SW)    
Max Wind Speed 20 mph    
Max Gust Speed 26 mph    
Visibility 6 miles    
Events Snow    
T = Trace of Precipitation, MM = Missing Value Source: NWS Daily Summary

Daily Weather History Graph

Daily Weather History Graph

Search for Another Location

Airport or City:

Trip Planner

Search our weather history database for the weather conditions in past years. The results will help you decide how hot, cold, wet, or windy it might be!

Date:

Astronomy

Dec. 31, 2012 Rise Set
Actual Time 7:48 AM EST 5:03 PM EST
Civil Twilight 7:17 AM EST 5:34 PM EST
Nautical Twilight 6:42 AM EST 6:09 PM EST
Astronomical Twilight 6:09 AM EST 6:43 PM EST
Moon 8:35 PM EST (12/31) 9:27 AM EST (12/31)
Length of Visible Light 10h 17m
Length of Day
9h 15m
Waning Gibbous, 90% of the Moon is Illuminated
Dec 31
Waning Gibbous
Jan 4
Last Quarter
Jan 11
New
Jan 18
First Quarter
Jan 26
Full

Hourly Weather History & Observations

Time (EST) Temp. Windchill Dew Point Humidity Pressure Visibility Wind Dir Wind Speed Gust Speed Precip Events Conditions
12:51 AM 19.4 °F 10.4 °F 14.0 °F 80% 30.24 in 10.0 mi SSW 6.9 mph - N/A   Partly Cloudy
1:51 AM 19.9 °F 10.1 °F 16.0 °F 85% 30.26 in 9.0 mi SSW 8.1 mph - N/A   Mostly Cloudy
2:51 AM 19.9 °F 12.1 °F 16.0 °F 85% 30.25 in 9.0 mi SSW 5.8 mph - N/A   Overcast
3:51 AM 21.0 °F 11.4 °F 17.1 °F 85% 30.24 in 9.0 mi SSW 8.1 mph - N/A   Overcast
4:51 AM 21.9 °F 11.0 °F 17.1 °F 82% 30.21 in 10.0 mi SSW 10.4 mph - N/A   Overcast
5:51 AM 21.9 °F 10.4 °F 17.1 °F 82% 30.20 in 10.0 mi SSW 11.5 mph - N/A   Overcast
6:51 AM 21.9 °F 13.4 °F 17.1 °F 82% 30.19 in 10.0 mi SSW 6.9 mph - N/A   Overcast
7:51 AM 23.0 °F 11.7 °F 17.1 °F 78% 30.17 in 10.0 mi SSW 11.5 mph - N/A   Overcast
8:51 AM 26.1 °F 15.0 °F 18.0 °F 71% 30.15 in 10.0 mi SSW 12.7 mph 18.4 mph N/A   Overcast
9:51 AM 27.0 °F 15.6 °F 18.0 °F 69% 30.14 in 10.0 mi SSW 13.8 mph 24.2 mph N/A   Overcast
10:51 AM 28.0 °F 16.5 °F 19.0 °F 69% 30.13 in 10.0 mi SW 15.0 mph 23.0 mph N/A   Overcast
11:51 AM 30.0 °F 20.0 °F 19.9 °F 66% 30.10 in 10.0 mi SW 12.7 mph - N/A   Overcast
12:51 PM 30.9 °F 19.8 °F 19.9 °F 64% 30.07 in 10.0 mi SW 16.1 mph 24.2 mph N/A   Overcast
1:51 PM 32.0 °F 21.2 °F 19.9 °F 61% 30.04 in 10.0 mi SW 16.1 mph 21.9 mph N/A   Overcast
2:51 PM 32.0 °F 20.1 °F 21.0 °F 64% 30.03 in 10.0 mi SW 19.6 mph 25.3 mph N/A   Overcast
3:49 PM 32.0 °F 21.6 °F 21.2 °F 64% 29.97 in 10.0 mi SW 15.0 mph 24.2 mph N/A   Overcast
3:51 PM 32.0 °F 21.2 °F 21.9 °F 66% 30.02 in 10.0 mi SW 16.1 mph 24.2 mph N/A   Overcast
4:23 PM 30.2 °F 19.8 °F 24.8 °F 80% 29.98 in 3.0 mi WSW 13.8 mph - 0.00 in Snow Light Snow
4:29 PM 30.2 °F 20.2 °F 24.8 °F 80% 29.98 in 1.5 mi WSW 12.7 mph - 0.00 in Snow Light Snow
4:38 PM 30.2 °F 21.3 °F 26.6 °F 86% 29.98 in 0.8 mi SW 10.4 mph - 0.00 in Snow Light Snow
4:51 PM 30.2 °F 20.8 °F 26.6 °F 86% 29.97 in 0.8 mi SW 11.5 mph - N/A Snow Light Snow
5:12 PM 30.2 °F 20.2 °F 26.6 °F 86% 29.98 in 0.8 mi SW 12.7 mph - 0.01 in Snow Light Snow
5:51 PM 30.0 °F 21.1 °F 27.0 °F 88% 30.02 in 0.8 mi SW 10.4 mph - 0.04 in Snow Light Snow
6:51 PM 30.0 °F 18.7 °F 27.0 °F 88% 30.02 in 0.8 mi SW 16.1 mph 23.0 mph 0.03 in Snow Light Snow
7:04 PM 30.2 °F 19.8 °F 26.6 °F 86% 29.97 in 1.5 mi SW 13.8 mph - 0.00 in Snow Light Snow
7:15 PM 30.2 °F 20.2 °F 26.6 °F 86% 29.96 in 2.0 mi SW 12.7 mph - N/A Snow Light Snow
7:24 PM 30.2 °F 19.8 °F 26.6 °F 86% 29.97 in 3.0 mi SW 13.8 mph 20.7 mph 0.00 in Snow Light Snow
7:51 PM 30.0 °F 20.5 °F 27.0 °F 88% 30.01 in 3.0 mi SW 11.5 mph - 0.01 in Snow Light Snow
8:27 PM 30.2 °F 19.8 °F 26.6 °F 86% 29.97 in 1.0 mi WSW 13.8 mph - 0.00 in Snow Light Snow
8:51 PM 30.9 °F 21.2 °F 28.0 °F 89% 30.01 in 1.0 mi WSW 12.7 mph - 0.00 in Snow Light Snow
9:14 PM 30.2 °F 20.8 °F 28.4 °F 93% 29.97 in 1.0 mi WSW 11.5 mph - 0.01 in Snow Light Snow
9:19 PM 30.2 °F 20.2 °F 28.4 °F 93% 29.97 in 3.0 mi WSW 12.7 mph - 0.01 in Snow Light Snow
9:51 PM 30.9 °F 22.8 °F 28.0 °F 89% 30.01 in 3.0 mi WSW 9.2 mph - 0.01 in Snow Light Snow
10:51 PM 30.9 °F 22.8 °F 28.0 °F 89% 30.01 in 4.0 mi WSW 9.2 mph - 0.01 in Snow Light Snow
11:30 PM 30.2 °F 20.8 °F 28.4 °F 93% 29.98 in 5.0 mi WSW 11.5 mph - 0.00 in Snow Light Snow
11:51 PM 30.9 °F 22.8 °F 28.0 °F 89% 30.01 in 6.0 mi WSW 9.2 mph - 0.00 in Snow Light Snow